STARLINK-4208 (52844 NORAD) Tracking and Keplerian Element Data

This shows tracking and keplerian element data for the satellite.

Feedback or suggestion? Click here.




ElementValue
Catalog52844
NameSTARLINK-4208
Epoch Orbit130
Epoch Day270.00001157
Epoch Year2022
RAAN289.0866
Inclination53.2185
Eccentricity0.0002192
Argument of Perigee37.5456
Mean Anonmoly62.113
Mean Motion15.08820572
Decay Rate0.00040181
L11 52844U 22062Q 22270.00001157 .00040181 00000+0 25297-2 0 9992
L22 52844 53.2185 289.0866 0002192 37.5456 62.1130 15.08820572 1307

Live tracking and technical data element details for STARLINK-4208 (NORAD 52844). STARLINK-4208 can be tracked NOW for your location showing map with azimuth and elevation plus other details from your city location.

Track the satellite on the map from your city or location and see movement details for azimuth, elevation, latitude, longitude, range, height, and movement on the map or in text.







IsCatalogInMostPopularTable: catalog: 52844, numindb: 5
Update: records affected: 1



GetName: 52844 STARLINK-4208

Hit Count: updated at: Thu, 06 Oct 2022 04:16:00 GMT